DateTimeUTC,F1_A11,F1_S11,BsB_S11,BsG_S11,BsR_S11,BbsB_S11,BbsG_S11,BbsR_S11,BaB_A11,BaG_A11,BaR_A11,Tu_S11,T_S11,Uu_S11,U_S11,P_S11,T1_A11
2021-05-20T04:00:00Z,00000200,21000000,,,,,,,-000.15,0000.12,-000.14,16.7,24.0,,00.0,0673.4,30.9
2021-05-20T04:01:00Z,00000200,21000000,,,,,,,-000.31,-000.14,-000.06,16.7,24.1,,00.0,0673.4,30.9
2021-05-20T04:02:00Z,00000200,21000000,,,,,,,-000.03,-000.56,0000.08,16.6,24.1,,00.0,0673.4,30.9
2021-05-20T04:03:00Z,00000200,61000000,,,,,,,0000.78,0000.87,0000.28,16.6,24.1,,00.0,0673.5,30.9
2021-05-20T04:04:00Z,00000200,41000000,0004.78,0002.51,0001.51,0000.62,0000.40,0000.20,0000.80,0000.80,0000.75,16.7,23.8,,00.0,0674.4,30.9
2021-05-20T04:05:00Z,00000200,01000000,0004.39,0002.60,0001.50,0000.60,0000.41,0000.27,0000.95,0001.16,0000.96,16.7,23.7,,00.0,0674.4,30.8
2021-05-20T04:06:00Z,00000200,01000000,0004.21,0002.26,0001.84,0000.93,0000.46,0000.33,0001.24,0000.95,0000.32,16.7,23.6,,00.0,0674.4,30.8
2021-05-20T04:07:00Z,00000200,01000000,0003.95,0002.43,0001.46,0000.24,0000.59,0000.19,0001.01,0000.68,0000.87,16.6,23.6,,00.0,0674.4,30.9
2021-05-20T04:08:00Z,00000200,01000000,0003.36,0002.59,0001.54,0000.83,0000.34,0000.34,0000.38,0000.83,0000.16,16.6,23.6,,00.0,0674.4,30.9
2021-05-20T04:09:00Z,00000200,01000000,0003.50,0002.17,0001.52,0000.60,0000.37,0000.11,0001.00,0000.55,0000.95,16.6,23.6,,00.0,0674.4,30.8
2021-05-20T04:10:00Z,00000200,01000000,0003.80,0002.42,0001.33,0000.44,0000.57,0000.54,0001.24,0000.74,-000.02,16.5,23.5,,00.0,0674.4,30.8
2021-05-20T04:11:00Z,00000200,01000000,0004.67,0002.70,0001.48,0000.74,0000.46,0000.41,0000.81,0000.59,0000.84,16.5,23.5,,00.0,0674.4,30.8
2021-05-20T04:12:00Z,00000200,01000000,0004.67,0002.66,0001.37,0001.02,0000.28,0000.45,0000.88,0000.96,0000.59,16.5,23.5,,00.0,0674.4,30.8
2021-05-20T04:13:00Z,00000200,01000000,0004.25,0002.31,0001.45,0000.64,0000.56,0000.45,0000.68,0001.24,0000.68,16.5,23.4,,00.0,0674.3,30.8
2021-05-20T04:14:00Z,00000200,01000000,0003.71,0002.83,0001.35,0000.70,0000.61,0000.26,0001.14,0000.07,0000.27,16.5,23.4,,00.0,0674.3,30.8
2021-05-20T04:15:00Z,00000200,01000000,0004.19,0002.85,0001.17,0000.85,0000.60,0000.38,0000.85,0001.24,0000.75,16.4,23.4,,00.0,0674.2,30.8
2021-05-20T04:16:00Z,00000200,01000000,0004.15,0002.32,0001.46,0001.02,0000.38,0000.26,0001.21,0000.93,0001.00,16.4,23.4,,00.0,0674.2,30.8
2021-05-20T04:17:00Z,00000200,01000000,0003.67,0002.28,0001.48,0000.57,0000.51,0000.16,0000.68,0001.09,0000.46,16.4,23.3,,00.0,0674.2,30.8
2021-05-20T04:18:00Z,00000200,01000000,0003.97,0002.42,0001.42,0000.95,0000.51,0000.33,0000.83,0000.80,0000.40,16.4,23.3,,00.0,0674.2,30.8
2021-05-20T04:19:00Z,00000200,01000000,0003.93,0002.49,0001.39,0000.85,0000.47,0000.38,0000.79,0000.74,0000.97,16.3,23.3,,00.0,0674.2,30.8
2021-05-20T04:20:00Z,00000200,01000000,0004.41,0002.67,0001.46,0000.81,0000.43,0000.03,0001.03,0000.60,0000.27,16.3,23.3,,00.0,0674.2,30.8
2021-05-20T04:21:00Z,00000200,01000000,0004.14,0002.62,0001.25,0000.89,0000.49,0000.02,0001.14,0000.91,0000.74,16.3,23.2,,00.0,0674.2,30.8
2021-05-20T04:22:00Z,00000200,01000000,0003.84,0002.36,0001.50,0001.04,0000.74,0000.60,0001.00,0000.80,0000.47,16.3,23.2,,00.0,0674.2,30.8
2021-05-20T04:23:00Z,00000200,01000000,0002.99,0002.56,0001.25,0000.43,0000.84,0000.37,0000.64,0000.73,0000.54,16.2,23.2,,00.0,0674.2,30.8
2021-05-20T04:24:00Z,00000200,01000000,0004.01,0002.39,0001.17,0000.51,0000.37,0000.09,0001.15,0000.68,0000.77,16.2,23.2,,00.0,0674.2,30.8
2021-05-20T04:25:00Z,00000200,01000000,0003.98,0002.34,0001.55,0000.66,0000.81,0000.43,0000.64,0000.90,0000.52,16.2,23.2,,00.0,0674.2,30.8
2021-05-20T04:26:00Z,00000200,01000000,0003.97,0002.35,0001.34,0000.83,0000.62,0000.22,0001.04,0000.94,0000.60,16.1,23.1,,00.0,0674.2,30.8
2021-05-20T04:27:00Z,00000200,01000000,0003.14,0002.54,0001.58,0000.59,0000.65,0000.51,0000.90,0000.97,0000.64,16.1,23.1,,00.0,0674.1,30.8
2021-05-20T04:28:00Z,00000200,01000000,0004.17,0002.09,0001.50,0001.07,0000.35,0000.57,0001.21,0000.69,0000.66,16.1,23.1,,00.0,0674.1,30.8
2021-05-20T04:29:00Z,00000200,01000000,0003.57,0002.48,0001.70,0000.84,0000.40,0000.32,0000.52,0000.79,0000.50,16.1,23.1,,00.0,0674.1,30.8
2021-05-20T04:30:00Z,00000200,01000000,0004.86,0002.64,0001.76,0000.46,0000.22,0000.38,0001.00,0000.57,0000.72,16.1,23.0,,00.0,0674.1,30.8
2021-05-20T04:31:00Z,00000200,01000000,0003.88,0002.16,0001.62,0001.06,0000.58,0000.48,0001.05,0001.29,0000.68,16.1,23.0,,00.0,0674.0,30.8
2021-05-20T04:32:00Z,00000200,01000000,0003.90,0002.69,0001.38,0000.97,0000.57,0000.16,0000.85,0000.84,0000.90,16.1,23.0,00.0,00.0,0674.0,30.8
2021-05-20T04:33:00Z,00000200,01000000,0003.24,0002.10,0001.61,0000.42,0000.45,0000.61,0001.32,0000.77,0000.69,16.1,23.0,00.0,00.0,0674.0,30.8
2021-05-20T04:34:00Z,00000200,01000000,0003.63,0002.21,0001.23,0000.97,0000.57,0000.29,0000.97,0000.67,0000.50,16.2,23.1,,00.0,0674.0,30.8
2021-05-20T04:35:00Z,00000200,01000000,0003.96,0002.10,0001.54,0000.77,0000.60,0000.59,0000.79,0000.99,0000.66,16.3,23.1,,00.0,0674.0,30.9
2021-05-20T04:36:00Z,00000200,01000000,0004.14,0002.50,0001.37,0001.13,0000.73,0000.24,0001.07,0000.99,0000.32,16.3,23.1,,00.0,0674.0,30.9
2021-05-20T04:37:00Z,00000200,01000000,0003.57,0002.56,0001.48,0000.76,0000.50,0000.10,0000.72,0000.50,0000.41,16.4,23.2,,00.0,0674.0,30.9
2021-05-20T04:38:00Z,00000200,01000000,0004.68,0002.31,0001.39,0000.77,0000.41,0000.30,0000.67,0000.63,0000.66,16.5,23.2,,00.0,0674.0,30.9
2021-05-20T04:39:00Z,00000200,01000000,0003.81,0002.24,0001.31,0000.91,0000.51,0000.32,0000.50,0001.01,0000.57,16.5,23.2,,00.0,0674.0,30.9
2021-05-20T04:40:00Z,00000200,01000000,0003.56,0002.14,0001.43,0000.84,0000.66,0000.15,0001.00,0000.73,0000.57,16.5,23.2,,00.0,0674.0,30.9
2021-05-20T04:41:00Z,00000200,01000000,0004.32,0002.32,0001.30,0000.75,0000.39,0000.46,0000.89,0000.41,0000.32,16.5,23.2,,00.0,0674.0,30.9
2021-05-20T04:42:00Z,00000200,01000000,0003.64,0002.40,0001.34,0000.45,0000.26,0000.10,0000.42,0000.50,0000.48,16.4,23.2,,00.0,0674.0,30.9
2021-05-20T04:43:00Z,00000200,01000000,0003.75,0002.59,0001.64,0000.86,0000.56,0000.42,0000.76,0000.74,0000.50,16.4,23.1,,00.0,0674.0,30.9
2021-05-20T04:44:00Z,00000200,01000000,0003.66,0002.55,0001.43,0000.52,0000.34,0000.17,0001.26,0001.16,0000.82,16.4,23.1,,00.0,0674.0,30.9
2021-05-20T04:45:00Z,00000200,01000000,0004.75,0002.44,0001.39,0001.13,0000.63,0000.24,0000.61,0000.65,0000.72,16.3,23.1,,00.0,0674.0,30.8
2021-05-20T04:46:00Z,00000200,01000000,0003.85,0002.54,0001.65,0000.54,0000.59,0000.19,0001.56,0000.86,0000.33,16.3,23.1,,00.0,0673.9,30.8
2021-05-20T04:47:00Z,00000200,01000000,0003.89,0002.53,0001.12,0001.18,0000.63,0000.18,0000.46,0000.81,0000.75,16.3,23.1,,00.0,0674.0,30.9
2021-05-20T04:48:00Z,00000200,01000000,0003.10,0002.13,0001.73,0000.91,0000.51,0000.31,0000.64,0000.71,0000.22,16.4,23.2,,00.0,0674.0,30.9
2021-05-20T04:49:00Z,00000200,01000000,0004.10,0002.47,0001.20,0000.50,0000.61,0000.24,0001.34,0000.77,0000.86,16.4,23.2,,00.0,0674.0,30.9
2021-05-20T04:50:00Z,00000200,01000000,0003.29,0002.43,0001.28,0000.62,0000.54,0000.29,0000.75,0000.62,0000.30,16.5,23.2,,00.0,0674.0,30.9
2021-05-20T04:51:00Z,00000200,01000000,0004.03,0002.22,0001.39,0000.68,0000.38,0000.48,0000.70,0000.87,0000.65,16.6,23.3,,00.0,0674.0,30.9
2021-05-20T04:52:00Z,00000200,01000000,0003.94,0002.44,0001.67,0000.78,0000.42,0000.68,0000.49,0000.75,0000.24,16.6,23.3,,00.0,0674.0,30.9
2021-05-20T04:53:00Z,00000200,01000000,0003.36,0002.17,0001.43,0001.16,0000.70,0000.32,0000.84,0000.58,0000.84,16.6,23.3,,00.0,0674.0,30.9
2021-05-20T04:54:00Z,00000200,01000000,0004.36,0002.24,0001.51,0000.90,0000.26,0000.40,0000.93,0000.74,0000.75,16.6,23.3,,00.0,0674.0,30.9
2021-05-20T04:55:00Z,00000200,01000000,0003.99,0002.51,0001.72,0000.45,0000.36,0000.65,0001.04,0000.87,0000.15,16.6,23.3,,00.0,0674.0,30.9
2021-05-20T04:56:00Z,00000200,01000000,0003.98,0002.26,0001.48,0000.90,0000.62,0000.44,0000.80,0000.34,0000.54,16.6,23.3,,00.0,0674.0,30.9
2021-05-20T04:57:00Z,00000200,41000000,,,,,,,0000.19,0000.53,-000.14,16.6,23.3,,00.0,0674.0,30.9
2021-05-20T04:58:00Z,00000200,61000000,,,,,,,-000.36,-000.27,-000.03,16.2,23.5,,00.0,0673.0,30.9
2021-05-20T04:59:00Z,00000200,21000000,,,,,,,-000.09,-000.20,-000.05,16.2,23.6,,00.0,0673.0,30.9
